Overview Statistics Trail Chart Weather Telemetry Raw packets
 

This is the latest recevied weather packets stored in our database for station/object DK6GC-10. If no packets are shown the sender has not sent any weather packets the latest 10 day(s).

<< 8 9 10 11 12 13 14 >>
Time Temp. Humidity Pressure Rain* Wind** Luminosity Snow
1788486320 18.33° C 75% 1021.9 hPa - - - -
1788485420 18.89° C 72% 1021.9 hPa - - - -
1788484520 18.89° C 73% 1021.9 hPa - - - -
1788483620 18.89° C 73% 1021.8 hPa - - - -
1788482719 18.89° C 72% 1022 hPa - - - -
1788481819 19.44° C 71% 1022.2 hPa - - - -
1788480919 19.44° C 71% 1022.3 hPa - - - -
1788480023 19.44° C 70% 1022.4 hPa - - - -
1788479123 19.44° C 69% 1022.6 hPa - - - -
1788478223 20.56° C 66% 1022.7 hPa - - - -
1788477323 21.11° C 64% 1022.6 hPa - - - -
1788476423 21.67° C 61% 1022.5 hPa - - - -
1788475523 21.67° C 59% 1022.7 hPa - - - -
1788474622 21.67° C 60% 1022.7 hPa - - - -
1788473722 21.67° C 59% 1022.9 hPa - - - -
1788472822 21.67° C 58% 1022.9 hPa - - - -
1788471922 22.22° C 57% 1022.9 hPa - - - -
1788471022 22.22° C 56% 1022.7 hPa - - - -
1788470121 22.22° C 56% 1022.6 hPa - - - -
1788469221 22.22° C 56% 1022.7 hPa - - - -
1788468321 22.22° C 59% 1022.7 hPa - - - -
1788467421 22.22° C 59% 1022.8 hPa - - - -
1788466521 21.67° C 60% 1022.8 hPa - - - -
1788465621 21.67° C 65% 1022.7 hPa - - - -
1788464720 21.11° C 66% 1022.8 hPa - - - -

* Rain since midnight (hover to see other rain measurements)
** Current wind speed in m/s (hover to see current wind gust speed)